Home   Weather   Township of Fairfield   Past weeks
Flag for USA

Past Weather in Township of Fairfield, Iowa, USA — Yesterday and Last 2 Weeks

Now
37 °F

Clear.


Feels Like: 33 °F
Forecast: 35 / 22 °F
Wind: 5 mph from Southwest

Location: Dubuque Regional Airport

Current Time: Dec 5, 2019 at 9:11:20 pm

Latest Report: Dec 5, 2019 at 7:53 pm


Visibility: 10 mi

Pressure: 29.94 "Hg

Humidity: 86%

Dew Point: 33 °F

Location of Township of FairfieldLocation

Past Weather in Township of Fairfield — Graph

°F

Township of Fairfield Temperature Yesterday

Maximum temperature yesterday: 41 °F (at 12:53 pm)
Minimum temperature yesterday: 29 °F (at 9:53 pm)
Average temperature yesterday: 34 °F

High & Low Weather Summary for the Past Weeks

 TemperatureHumidityPressure
High52 °F (Nov 21, 9:53 am)100% (Nov 27, 2:18 am)30.55 "Hg (Nov 27, 2:18 am)
Low20 °F (Nov 23, 2:53 am)52% (Nov 25, 1:53 pm)29.20 "Hg (Nov 27, 3:16 am)
Average34 °F85%29.83 "Hg
* Reported Nov 20 7:53 pm — Dec 5 7:53 pm, Township of Fairfield. Weather by CustomWeather, © 2019

Note: Actual official high and low records may vary slightly from our data, if they occured in-between our weather recording intervals... More about our weather records

Township of Fairfield Weather History for the Previous 24 Hours

Scroll right to see more
 ConditionsComfort  
Time TempWeatherWind HumidityBarometerVisibility
7:53 pm
Thu, Dec 5
37 °FClear.5 mph86%29.94 "Hg10 mi
6:53 pm39 °FClear.6 mph82%29.93 "Hg10 mi
5:53 pm39 °FClear.5 mph82%29.92 "Hg10 mi
4:53 pm42 °FClear.8 mph76%29.91 "Hg10 mi
3:53 pm47 °FSunny.7 mph66%29.91 "Hg10 mi
2:53 pm47 °FSunny.10 mph66%29.91 "Hg10 mi
1:53 pm45 °FSunny.12 mph68%29.91 "Hg10 mi
12:53 pm44 °FSunny.10 mph68%29.93 "Hg10 mi
11:53 am40 °FSunny.13 mph73%29.96 "Hg10 mi
10:53 am39 °FSunny.12 mph76%29.98 "Hg10 mi
9:53 am34 °FSunny.8 mph87%29.97 "Hg10 mi
8:53 am31 °FSunny.9 mph89%30.01 "Hg10 mi
7:53 am25 °FSunny.No wind92%30.01 "Hg9 mi
6:53 am24 °FClear.3 mph84%30.00 "Hg10 mi
5:53 am27 °FClear.No wind85%29.99 "Hg10 mi
4:53 am25 °FClear.3 mph92%29.99 "Hg8 mi
3:53 am24 °FClear.6 mph91%29.98 "Hg8 mi
2:53 am25 °FClear.3 mph88%29.97 "Hg9 mi
1:53 am24 °FClear.6 mph91%29.96 "Hg10 mi
12:53 am30 °FClear.3 mph85%29.95 "Hg10 mi
11:53 pm
Wed, Dec 4
30 °FClear.No wind82%29.96 "Hg10 mi
10:53 pm30 °FClear.5 mph82%29.95 "Hg10 mi
9:53 pm29 °FClear.7 mph89%29.95 "Hg10 mi
Weather by CustomWeather, © 2019

See weather overview

Advertising